Language: 


Des rapports , des résumés tant et plus, au choix de chacun....


Données Historiques de Météogheer
Journalier Rapport pour Mars 8, 2018 Unitée:  Impériale    Métrique   Les deux
Suivant Jour »
Journalier Hebdomadaire Mensuel Annuel Sur mesure
  Max: Min: Moyenne:
Température: 51.1 °F 35.8 °F 42.6 °F
Point de rosée: 44.6 °F 33.8 °F 38.7 °F
Humidité: 98% 57% 85%
Vent: 33.3mph 0mph 10.3mph
Rafales: 33.3mph - -
Vent- - SW
Pression: 29.6 in 29.4 in -
Pluie: 0.21 in    
Historical Graphs
 
 
Données tabulaires pour Mars 8, 2018
Heure Température Point de rosée Pression Vent Vent Rafales Humidité Pluie Taux (Horaire) Conditions
00:00 38.7 °F 39.2 °F 29.5 in WSW 4.9 mph 8.5 mph 98% 0 in
00:10 38.7 °F 39.2 °F 29.5 in SW 5.4 mph 7.4 mph 98% 0 in
00:20 38.5 °F 37.4 °F 29.5 in SW 2 mph 6 mph 97% 0 in
00:30 38.5 °F 37.4 °F 29.5 in Calm   8.1 mph 97% 0 in
00:40 38.3 °F 37.4 °F 29.5 in Calm   5.8 mph 96% 0 in
00:50 37.9 °F 37.4 °F 29.5 in SSW 4 mph 4.3 mph 96% 0 in
01:00 37.6 °F 37.4 °F 29.5 in SSW 4 mph 5.8 mph 95% 0 in
01:10 37 °F 37.4 °F 29.5 in South 1.6 mph 1.6 mph 95% 0 in
01:20 36.5 °F 35.6 °F 29.5 in Calm   1.3 mph 94% 0 in
01:30 36.3 °F 35.6 °F 29.5 in Calm   3.4 mph 95% 0 in
01:40 36.1 °F 35.6 °F 29.5 in South 4 mph 4.3 mph 96% 0 in
01:50 36.1 °F 35.6 °F 29.5 in Calm   4.3 mph 96% 0 in
02:00 36 °F 35.6 °F 29.5 in Calm   4.3 mph 96% 0 in
02:10 35.8 °F 35.6 °F 29.5 in Calm     96% 0 in
02:20 36 °F 35.6 °F 29.5 in Calm   4.3 mph 96% 0 in
02:30 36 °F 35.6 °F 29.5 in Calm   2.9 mph 96% 0 in
02:40 36 °F 35.6 °F 29.5 in Calm     96% 0 in
02:50 36 °F 35.6 °F 29.5 in Calm   4.5 mph 96% 0 in
03:00 36.1 °F 35.6 °F 29.5 in SSE 1.6 mph 4.3 mph 96% 0 in
03:10 36 °F 35.6 °F 29.5 in Calm   3.6 mph 96% 0 in
03:20 36.1 °F 35.6 °F 29.5 in South 4 mph 6.3 mph 96% 0 in
03:40 36.1 °F 35.6 °F 29.5 in South 4.3 mph 7.6 mph 97% 0 in
03:50 36.3 °F 35.6 °F 29.5 in Calm   6.3 mph 97% 0 in
04:00 36.3 °F 35.6 °F 29.5 in Calm   6 mph 97% 0 in
04:10 36.3 °F 35.6 °F 29.5 in South 4 mph 6 mph 97% 0 in
04:20 36.3 °F 35.6 °F 29.5 in Calm   5.8 mph 96% 0 in
04:30 36.5 °F 37.4 °F 29.5 in South 3.6 mph 7.6 mph 97% 0 in
04:40 36.7 °F 37.4 °F 29.5 in South 5.4 mph 6.5 mph 97% 0 in
04:50 36.7 °F 37.4 °F 29.5 in Calm   7.8 mph 97% 0 in
05:00 36.9 °F 37.4 °F 29.5 in SSE 4.9 mph 7.8 mph 97% 0 in
05:10 37 °F 37.4 °F 29.5 in SSW 6 mph 8.1 mph 98% 0 in
05:15 37 °F 37.4 °F 29.5 in South 6.7 mph 8.5 mph 98% 0 in
05:20 37.2 °F 37.4 °F 29.5 in South 5.4 mph 8.5 mph 97% 0 in
05:30 37.2 °F 37.4 °F 29.5 in South 7.8 mph 8.5 mph 97% 0 in
05:40 37.6 °F 37.4 °F 29.5 in South 6.5 mph 7.8 mph 97% 0 in
05:50 37.8 °F 37.4 °F 29.4 in South 4 mph 9.6 mph 97% 0 in
06:00 37.9 °F 37.4 °F 29.4 in South 2.2 mph 10.3 mph 98% 0 in
06:10 38.1 °F 37.4 °F 29.4 in SSW 5.4 mph 9.8 mph 98% 0 in
06:20 38.3 °F 39.2 °F 29.4 in SSW 6.3 mph 8.5 mph 98% 0 in
06:30 38.7 °F 39.2 °F 29.4 in SSW 6.5 mph 8.7 mph 98% 0 in
06:40 39 °F 39.2 °F 29.4 in South 4.3 mph 10.3 mph 98% 0 in
06:50 39.6 °F 39.2 °F 29.4 in South 8.1 mph 12.5 mph 98% 0 in
07:00 39.9 °F 39.2 °F 29.4 in SSW 9.8 mph 11.9 mph 98% 0 in
07:10 40.3 °F 41 °F 29.4 in SSW 6.3 mph 10.5 mph 98% 0 in
07:20 40.6 °F 41 °F 29.4 in SW 8.7 mph 15.2 mph 98% 0 in
07:30 41 °F 41 °F 29.4 in SSW 6.5 mph 15.4 mph 97% 0 in
07:40 41.2 °F 41 °F 29.4 in South 8.5 mph 17.4 mph 96% 0 in
07:50 41.4 °F 41 °F 29.4 in SW 10.5 mph 15.4 mph 95% 0 in
08:00 41.5 °F 41 °F 29.4 in SSW 9.6 mph 14.8 mph 94% 0 in
08:10 41.5 °F 41 °F 29.4 in South 10.3 mph 14.5 mph 93% 0 in
08:20 41.7 °F 41 °F 29.4 in South 9.6 mph 17 mph 93% 0 in
08:30 41.7 °F 41 °F 29.4 in South 8.5 mph 14.5 mph 93% 0 in
08:40 42.1 °F 41 °F 29.4 in SW 9.2 mph 17.2 mph 94% 0 in
08:50 42.4 °F 41 °F 29.4 in SW 13.6 mph 16.6 mph 94% 0 in
09:00 42.8 °F 41 °F 29.4 in SSW 10.5 mph 17 mph 93% 0 in
09:10 43 °F 41 °F 29.4 in SW 12.3 mph 20.1 mph 93% 0 in
09:20 43 °F 41 °F 29.4 in SSW 8.5 mph 16.3 mph 93% 0 in
09:25 43 °F 41 °F 29.4 in SSW 10.1 mph 13 mph 93% 0 in
09:30 43 °F 41 °F 29.4 in SSW 7.4 mph 13 mph 94% 0 in
09:40 42.8 °F 42.8 °F 29.4 in SSW 6.3 mph 14.5 mph 95% 0.01 in
09:45 42.8 °F 42.8 °F 29.4 in SSW 10.3 mph 14.3 mph 96% 0.02 in
09:50 43 °F 42.8 °F 29.4 in SSW 6.5 mph 13 mph 97% 0.04 in
10:00 43 °F 42.8 °F 29.4 in SSW 7.8 mph 14.5 mph 98% 0.06 in
10:10 43.3 °F 42.8 °F 29.4 in SSW 9.8 mph 12.3 mph 98% 0.09 in
10:20 43.3 °F 42.8 °F 29.4 in SSW 10.3 mph 14.1 mph 98% 0.1 in
10:30 43.5 °F 42.8 °F 29.4 in SSW 8.7 mph 17 mph 98% 0.11 in
10:40 43.7 °F 44.6 °F 29.4 in SW 11 mph 14.3 mph 98% 0.1 in
10:50 43.9 °F 44.6 °F 29.4 in SW 10.5 mph 17.2 mph 98% 0.09 in
11:00 43.9 °F 44.6 °F 29.4 in SW 13 mph 14.5 mph 98% 0.06 in
11:10 44.1 °F 44.6 °F 29.4 in SW 13.9 mph 17.2 mph 98% 0.05 in
11:20 44.1 °F 44.6 °F 29.4 in SSW 13.6 mph 15.2 mph 98% 0.04 in
11:30 44.2 °F 44.6 °F 29.4 in SW 9.8 mph 17.4 mph 98% 0.04 in
11:40 44.6 °F 44.6 °F 29.4 in WSW 10.1 mph 14.8 mph 97% 0.04 in
11:50 44.8 °F 44.6 °F 29.4 in SW 10.3 mph 15.2 mph 96% 0.02 in
12:00 45.3 °F 44.6 °F 29.4 in WSW 10.1 mph 13.2 mph 95% 0.02 in
12:10 45.9 °F 44.6 °F 29.4 in SW 10.7 mph 15.4 mph 94% 0.01 in
12:20 45.9 °F 42.8 °F 29.4 in SSW 8.7 mph 12.8 mph 92% 0.01 in
12:25 45.9 °F 42.8 °F 29.4 in SW 10.5 mph 16.1 mph 91% 0 in
12:30 45.9 °F 42.8 °F 29.4 in WSW 12.8 mph 16.1 mph 90% 0 in
12:40 45.7 °F 42.8 °F 29.4 in SW 13.2 mph 17.2 mph 88% 0 in
12:50 43.7 °F 41 °F 29.4 in WSW 22.8 mph 33.3 mph 86% 0.01 in
13:00 42.3 °F 39.2 °F 29.4 in West 15.4 mph 25.3 mph 90% 0.03 in
13:10 42.8 °F 41 °F 29.4 in WSW 18.6 mph 23 mph 94% 0.05 in
13:20 43 °F 41 °F 29.4 in WSW 13.2 mph 22.4 mph 94% 0.06 in
13:30 44.2 °F 42.8 °F 29.4 in WSW 14.1 mph 22.6 mph 95% 0.06 in
13:40 44.4 °F 42.8 °F 29.4 in WSW 13.4 mph 23.3 mph 92% 0.06 in
13:45 46.4 °F 44.6 °F 29.4 in West 20.4 mph 25.9 mph 93% 0.06 in
13:50 47.1 °F 44.6 °F 29.4 in WSW 19.9 mph 25.9 mph 90% 0.05 in
13:55 47.5 °F 44.6 °F 29.4 in WSW 23.5 mph 24.6 mph 90% 0.03 in
14:00 48.4 °F 44.6 °F 29.4 in West 21.9 mph 25.7 mph 84% 0.03 in
14:05 48.7 °F 44.6 °F 29.4 in West 13.2 mph 25.7 mph 84% 0.01 in
14:10 49.8 °F 44.6 °F 29.4 in West 20.6 mph 23.9 mph 83% 0.01 in
14:20 49.8 °F 42.8 °F 29.4 in WSW 23.3 mph 27.3 mph 78% 0 in
14:25 49.5 °F 41 °F 29.4 in WSW 12.8 mph 27.3 mph 73% 0 in
14:30 49.6 °F 41 °F 29.4 in West 26.4 mph 26.8 mph 72% 0 in
14:35 49.3 °F 41 °F 29.4 in WSW 22.1 mph 28.6 mph 70% 0 in
14:40 49.6 °F 41 °F 29.4 in WSW 21.9 mph 28.6 mph 71% 0 in
14:45 50 °F 39.2 °F 29.4 in WSW 23.9 mph 29.3 mph 65% 0 in
14:50 49.6 °F 37.4 °F 29.4 in WSW 21.9 mph 29.3 mph 61% 0 in
14:55 49.5 °F 37.4 °F 29.4 in WSW 13.2 mph 28.9 mph 61% 0 in
15:00 50.2 °F 39.2 °F 29.4 in WSW 20.1 mph 26.8 mph 64% 0 in
15:05 50.7 °F 37.4 °F 29.4 in WSW 21.5 mph 30.6 mph 61% 0 in
15:10 51.1 °F 37.4 °F 29.4 in West 26.4 mph 31.8 mph 61% 0 in
15:15 50.5 °F 35.6 °F 29.4 in West 33.3 mph 33.3 mph 57% 0 in
15:20 49.8 °F 37.4 °F 29.4 in WSW 14.8 mph 33.3 mph 61% 0 in
15:25 50.5 °F 37.4 °F 29.4 in West 23.7 mph 33.3 mph 61% 0 in
15:30 50.4 °F 37.4 °F 29.4 in WSW 17.9 mph 25.5 mph 60% 0 in
15:40 48.9 °F 35.6 °F 29.4 in WSW 19.9 mph 27.3 mph 60% 0 in
15:50 49.8 °F 37.4 °F 29.4 in WNW 26.2 mph 28.6 mph 62% 0 in
16:00 49.8 °F 39.2 °F 29.5 in West 18.1 mph 26.2 mph 66% 0 in
16:10 49.3 °F 35.6 °F 29.5 in WSW 23.9 mph 27.7 mph 58% 0 in
16:20 49.5 °F 37.4 °F 29.5 in West 17.7 mph 30 mph 62% 0 in
16:30 49.5 °F 37.4 °F 29.5 in West 17.7 mph 28 mph 62% 0 in
16:40 49.6 °F 35.6 °F 29.5 in WSW 21.9 mph 28.6 mph 58% 0 in
16:50 49.1 °F 35.6 °F 29.5 in West 26.4 mph 26.6 mph 57% 0 in
16:55 49.1 °F 35.6 °F 29.5 in West 24.2 mph 26.4 mph 58% 0 in
17:00 48.7 °F 35.6 °F 29.5 in WSW 23.5 mph 24.6 mph 58% 0 in
17:05 48.7 °F 35.6 °F 29.5 in WSW 14.5 mph 24.4 mph 58% 0 in
17:10 48.7 °F 35.6 °F 29.5 in West 12.8 mph 23.5 mph 58% 0 in
17:15 48.6 °F 35.6 °F 29.5 in WSW 17.4 mph 26.4 mph 58% 0 in
17:20 48.4 °F 33.8 °F 29.5 in West 12.1 mph 26.4 mph 57% 0 in
17:30 48.2 °F 35.6 °F 29.5 in West 14.5 mph 17.9 mph 61% 0 in
17:35 48 °F 37.4 °F 29.5 in West 15.4 mph 17.4 mph 63% 0 in
17:40 47.8 °F 35.6 °F 29.5 in WSW 14.5 mph 19.7 mph 62% 0 in
17:45 47.5 °F 35.6 °F 29.5 in West 14.8 mph 22.8 mph 60% 0 in
17:50 47.3 °F 35.6 °F 29.5 in WSW 9.8 mph 22.8 mph 62% 0 in
18:00 46.9 °F 35.6 °F 29.5 in WSW 15.2 mph 18.6 mph 63% 0 in
18:10 46 °F 35.6 °F 29.5 in West 10.3 mph 17.4 mph 66% 0 in
18:15 45.7 °F 35.6 °F 29.5 in WSW 15.4 mph 17.4 mph 67% 0 in
18:20 45.3 °F 35.6 °F 29.5 in SW 12.5 mph 17 mph 68% 0 in
18:25 45.1 °F 35.6 °F 29.5 in West 12.1 mph 17.4 mph 69% 0 in
18:30 45.1 °F 35.6 °F 29.5 in West 10.5 mph 17.7 mph 69% 0 in
18:40 44.6 °F 35.6 °F 29.5 in WSW 13 mph 18.1 mph 71% 0 in
18:50 44.2 °F 35.6 °F 29.5 in WSW 14.3 mph 18.6 mph 72% 0 in
18:55 44.1 °F 35.6 °F 29.5 in WSW 10.7 mph 22.6 mph 72% 0 in
19:00 44.1 °F 35.6 °F 29.6 in WSW 8.5 mph 22.6 mph 72% 0 in
19:10 43.7 °F 37.4 °F 29.6 in WSW 11.2 mph 16.6 mph 74% 0 in
19:20 43.2 °F 37.4 °F 29.5 in WSW 9.6 mph 13 mph 75% 0 in
19:30 42.8 °F 35.6 °F 29.6 in WSW 10.5 mph 12.1 mph 76% 0 in
19:40 42.1 °F 35.6 °F 29.6 in WSW 6.3 mph 10.5 mph 78% 0 in
19:50 41.7 °F 37.4 °F 29.6 in WSW 6.3 mph 10.7 mph 80% 0 in
20:00 41.5 °F 37.4 °F 29.6 in WSW 10.1 mph 11 mph 82% 0 in
20:10 41 °F 37.4 °F 29.6 in WSW 7.4 mph 9.6 mph 83% 0 in
20:20 40.6 °F 35.6 °F 29.6 in Calm   8.7 mph 84% 0 in
20:30 40.5 °F 37.4 °F 29.6 in WSW 6.3 mph 8.1 mph 85% 0 in
20:40 39.9 °F 35.6 °F 29.6 in WSW 6 mph 8.1 mph 85% 0 in
20:50 39.9 °F 37.4 °F 29.6 in Calm   7.8 mph 87% 0 in
21:00 39.7 °F 37.4 °F 29.6 in WSW 5.4 mph 6.7 mph 87% 0 in
21:10 39.7 °F 37.4 °F 29.6 in WSW 5.4 mph 6.7 mph 87% 0 in
21:20 39.7 °F 37.4 °F 29.6 in WSW 5.4 mph 6.7 mph 87% 0 in
21:30 39.7 °F 37.4 °F 29.6 in WSW 5.4 mph 6.7 mph 87% 0 in
21:40 39.7 °F 37.4 °F 29.6 in WSW 6 mph 6 mph 87% 0 in
21:50 39.7 °F 37.4 °F 29.6 in WSW 6 mph 6 mph 87% 0 in
22:00 39.7 °F 37.4 °F 29.6 in WSW 6 mph 6 mph 87% 0 in
22:10 39.7 °F 37.4 °F 29.6 in WSW 6 mph 6 mph 87% 0 in
22:20 39.7 °F 37.4 °F 29.6 in WSW 6 mph 6 mph 87% 0 in
22:30 39.7 °F 37.4 °F 29.6 in WSW 6 mph 6 mph 87% 0 in
22:40 39.7 °F 37.4 °F 29.6 in WSW 6 mph 6 mph 87% 0 in
22:50 39.7 °F 37.4 °F 29.6 in WSW 6 mph 6 mph 87% 0 in
23:00 39.7 °F 37.4 °F 29.6 in WSW 6 mph 6 mph 87% 0 in
23:10 39.7 °F 37.4 °F 29.6 in WSW 6 mph 6 mph 87% 0 in
23:20 39.7 °F 37.4 °F 29.6 in WSW 6 mph 6 mph 87% 0 in
23:30 39.7 °F 37.4 °F 29.6 in WSW 6 mph 6 mph 87% 0 in
23:40 39.7 °F 37.4 °F 29.6 in WSW 6 mph 6 mph 87% 0 in
23:50 39.7 °F 37.4 °F 29.6 in WSW 6 mph 6 mph 87% 0 in
Données Historique de Météo Turbie

Mise a jour : 18/06/2018 00:15:12
Généré par Cumulus 1.9.4 (1099)